| time (UTC) | temp F | wind direction | speed MPH | gust MPH | rain 1hr in | rain 24hr in | rain mn in | humidity % | barometer mb |
| 20260507145319 | 78 | 299 | 0.0 | 2.0 | 0.00 | 0.00 | 0.00 | 27 | 1013.5 |
| 20260507144816 | 75 | 124 | 0.0 | 2.0 | 0.00 | 0.00 | 0.00 | 29 | 1013.6 |
| 20260507144314 | 76 | 171 | 0.0 | 0.0 | 0.00 | 0.00 | 0.00 | 28 | 1013.8 |
| 20260507143810 | 76 | 119 | 0.0 | 1.0 | 0.00 | 0.00 | 0.00 | 29 | 1013.5 |
| 20260507143308 | 76 | 84 | 0.0 | 1.0 | 0.00 | 0.00 | 0.00 | 29 | 1013.6 |
| 20260507142803 | 77 | 44 | 0.0 | 0.0 | 0.00 | 0.00 | 0.00 | 30 | 1013.6 |
| 20260507142300 | 78 | 270 | 0.0 | 0.0 | 0.00 | 0.00 | 0.00 | 29 | 1013.6 |
| 20260507141756 | 78 | 257 | 0.0 | 0.0 | 0.00 | 0.00 | 0.00 | 29 | 1013.5 |
| 20260507141254 | 77 | 305 | 0.0 | 0.0 | 0.00 | 0.00 | 0.00 | 29 | 1013.5 |
| 20260507140749 | 76 | 299 | 0.0 | 0.0 | 0.00 | 0.00 | 0.00 | 32 | 1013.5 |
| 20260507140247 | 77 | 261 | 0.0 | 0.0 | 0.00 | 0.00 | 0.00 | 30 | 1013.3 |
| 20260507135744 | 78 | 268 | 0.0 | 1.0 | 0.00 | 0.00 | 0.00 | 29 | 1013.4 |
| 20260507135242 | 74 | 284 | 0.0 | 0.0 | 0.00 | 0.00 | 0.00 | 33 | 1013.5 |
| 20260507134737 | 72 | 257 | 0.0 | 1.0 | 0.00 | 0.00 | 0.00 | 34 | 1013.4 |
| 20260507134234 | 68 | 284 | 0.0 | 2.0 | 0.00 | 0.00 | 0.00 | 38 | 1013.4 |
| 20260507133730 | 64 | 319 | 1.0 | 2.0 | 0.00 | 0.00 | 0.00 | 42 | 1013.3 |
| 20260507133227 | 63 | 279 | 1.0 | 3.0 | 0.00 | 0.00 | 0.00 | 42 | 1013.5 |
| 20260507132724 | 62 | 305 | 0.0 | 2.0 | 0.00 | 0.00 | 0.00 | 41 | 1013.3 |
| 20260507132221 | 62 | 350 | 0.0 | 1.0 | 0.00 | 0.00 | 0.00 | 41 | 1013.4 |
| 20260507131718 | 62 | 321 | 2.0 | 2.0 | 0.00 | 0.00 | 0.00 | 41 | 1013.3 |
| 20260507131215 | 61 | 314 | 1.0 | 2.0 | 0.00 | 0.00 | 0.00 | 41 | 1013.2 |
| 20260507130712 | 61 | 310 | 0.0 | 2.0 | 0.00 | 0.00 | 0.00 | 42 | 1013.3 |
| 20260507130210 | 61 | 296 | 2.0 | 3.0 | 0.00 | 0.00 | 0.00 | 40 | 1013.2 |
| 20260507125708 | 61 | 308 | 1.0 | 2.0 | 0.00 | 0.00 | 0.00 | 41 | 1013.0 |
| 20260507125205 | 61 | 284 | 0.0 | 1.0 | 0.00 | 0.00 | 0.00 | 41 | 1013.0 |
| 20260507124701 | 61 | 264 | 0.0 | 2.0 | 0.00 | 0.00 | 0.00 | 40 | 1012.8 |
| 20260507124159 | 60 | 303 | 2.0 | 2.0 | 0.00 | 0.00 | 0.00 | 41 | 1013.3 |
| 20260507123657 | 61 | 278 | 2.0 | 2.0 | 0.00 | 0.00 | 0.00 | 40 | 1013.1 |
| 20260507123154 | 61 | 281 | 1.0 | 2.0 | 0.00 | 0.00 | 0.00 | 41 | 1013.1 |
| 20260507122649 | 61 | 289 | 1.0 | 2.0 | 0.00 | 0.00 | 0.00 | 40 | 1012.9 |
| 20260507122145 | 61 | 272 | 2.0 | 2.0 | 0.00 | 0.00 | 0.00 | 39 | 1013.1 |
| 20260507121641 | 61 | 283 | 1.0 | 2.0 | 0.00 | 0.00 | 0.00 | 40 | 1013.0 |
| 20260507121137 | 61 | 287 | 1.0 | 2.0 | 0.00 | 0.00 | 0.00 | 39 | 1013.0 |
| 20260507120634 | 61 | 322 | 0.0 | 2.0 | 0.00 | 0.00 | 0.00 | 39 | 1012.8 |
| 20260507120131 | 61 | 243 | 1.0 | 2.0 | 0.00 | 0.00 | 0.00 | 39 | 1013.0 |
| 20260507115627 | 62 | 288 | 0.0 | 3.0 | 0.00 | 0.00 | 0.00 | 38 | 1012.9 |
| 20260507115122 | 62 | 290 | 1.0 | 2.0 | 0.00 | 0.00 | 0.00 | 38 | 1012.7 |
| 20260507114619 | 62 | 329 | 0.0 | 2.0 | 0.00 | 0.00 | 0.00 | 38 | 1013.0 |
| 20260507114116 | 62 | 324 | 0.0 | 2.0 | 0.00 | 0.00 | 0.00 | 38 | 1013.0 |
| 20260507113613 | 62 | 287 | 2.0 | 2.0 | 0.00 | 0.00 | 0.00 | 37 | 1013.0 |
| 20260507113110 | 63 | 264 | 0.0 | 1.0 | 0.00 | 0.00 | 0.00 | 37 | 1013.2 |
| 20260507112608 | 63 | 270 | 0.0 | 1.0 | 0.00 | 0.00 | 0.00 | 37 | 1013.1 |
| 20260507112105 | 63 | 284 | 0.0 | 0.0 | 0.00 | 0.00 | 0.00 | 36 | 1012.9 |
| 20260507111602 | 63 | 317 | 0.0 | 2.0 | 0.00 | 0.00 | 0.00 | 38 | 1012.8 |
| 20260507111058 | 63 | 276 | 0.0 | 0.0 | 0.00 | 0.00 | 0.00 | 39 | 1013.1 |
| 20260507110554 | 62 | 284 | 0.0 | 1.0 | 0.00 | 0.00 | 0.00 | 40 | 1012.9 |
| 20260507110051 | 63 | 289 | 1.0 | 2.0 | 0.00 | 0.00 | 0.00 | 39 | 1012.9 |
| 20260507105548 | 63 | 295 | 0.0 | 1.0 | 0.00 | 0.00 | 0.00 | 39 | 1013.1 |
| 20260507105044 | 63 | 284 | 0.0 | 1.0 | 0.00 | 0.00 | 0.00 | 38 | 1013.0 |
| 20260507104542 | 63 | 295 | 0.0 | 1.0 | 0.00 | 0.00 | 0.00 | 39 | 1013.3 |
| 20260507104038 | 64 | 314 | 1.0 | 1.0 | 0.00 | 0.00 | 0.00 | 38 | 1012.9 |
| 20260507103534 | 64 | 290 | 0.0 | 1.0 | 0.00 | 0.00 | 0.00 | 38 | 1013.1 |
| 20260507103031 | 64 | 315 | 0.0 | 1.0 | 0.00 | 0.00 | 0.00 | 38 | 1013.4 |
| 20260507102528 | 64 | 287 | 1.0 | 2.0 | 0.00 | 0.00 | 0.00 | 37 | 1013.4 |
| 20260507102024 | 64 | 288 | 1.0 | 1.0 | 0.00 | 0.00 | 0.00 | 37 | 1013.3 |
| 20260507101519 | 64 | 268 | 0.0 | 1.0 | 0.00 | 0.00 | 0.00 | 37 | 1013.5 |
| 20260507101016 | 65 | 284 | 0.0 | 1.0 | 0.00 | 0.00 | 0.00 | 37 | 1013.4 |
| 20260507100513 | 64 | 294 | 1.0 | 1.0 | 0.00 | 0.00 | 0.00 | 36 | 1013.5 |
| 20260507100011 | 64 | 272 | 0.0 | 1.0 | 0.00 | 0.00 | 0.00 | 38 | 1013.6 |
| 20260507095509 | 64 | 298 | 0.0 | 2.0 | 0.00 | 0.00 | 0.00 | 39 | 1013.4 |
| 20260507095005 | 64 | 274 | 1.0 | 2.0 | 0.00 | 0.00 | 0.00 | 39 | 1013.5 |
| 20260507094501 | 65 | 296 | 0.0 | 1.0 | 0.00 | 0.00 | 0.00 | 38 | 1013.5 |
| 20260507093959 | 65 | 287 | 1.0 | 2.0 | 0.00 | 0.00 | 0.00 | 37 | 1013.5 |
| 20260507093456 | 65 | 284 | 1.0 | 2.0 | 0.00 | 0.00 | 0.00 | 36 | 1013.3 |
| 20260507092954 | 65 | 284 | 0.0 | 2.0 | 0.00 | 0.00 | 0.00 | 35 | 1013.2 |
| 20260507092450 | 65 | 284 | 1.0 | 2.0 | 0.00 | 0.00 | 0.00 | 35 | 1013.4 |
| 20260507091947 | 65 | 273 | 1.0 | 2.0 | 0.00 | 0.00 | 0.00 | 34 | 1013.4 |
| 20260507091444 | 65 | 284 | 0.0 | 1.0 | 0.00 | 0.00 | 0.00 | 35 | 1013.5 |
| 20260507090940 | 65 | 282 | 1.0 | 2.0 | 0.00 | 0.00 | 0.00 | 35 | 1013.3 |
| 20260507090436 | 65 | 284 | 0.0 | 2.0 | 0.00 | 0.00 | 0.00 | 35 | 1013.2 |
| 20260507085932 | 65 | 284 | 1.0 | 1.0 | 0.00 | 0.00 | 0.00 | 35 | 1013.2 |
| 20260507085430 | 65 | 294 | 1.0 | 1.0 | 0.00 | 0.00 | 0.00 | 34 | 1013.3 |
| 20260507084927 | 65 | 284 | 1.0 | 1.0 | 0.00 | 0.00 | 0.00 | 35 | 1013.5 |
| 20260507084424 | 65 | 289 | 1.0 | 1.0 | 0.00 | 0.00 | 0.00 | 35 | 1013.5 |
| 20260507083921 | 66 | 298 | 0.0 | 1.0 | 0.00 | 0.00 | 0.00 | 34 | 1013.5 |
| 20260507083417 | 66 | 280 | 0.0 | 1.0 | 0.00 | 0.00 | 0.00 | 34 | 1013.6 |
| 20260507082913 | 66 | 261 | 0.0 | 1.0 | 0.00 | 0.00 | 0.00 | 35 | 1013.8 |
| 20260507082409 | 66 | 302 | 0.0 | 1.0 | 0.00 | 0.00 | 0.00 | 34 | 1013.5 |
| 20260507081907 | 66 | 293 | 0.0 | 2.0 | 0.00 | 0.00 | 0.00 | 34 | 1013.5 |
| 20260507081403 | 66 | 288 | 1.0 | 1.0 | 0.00 | 0.00 | 0.00 | 33 | 1013.6 |
| 20260507080859 | 66 | 287 | 0.0 | 2.0 | 0.00 | 0.00 | 0.00 | 34 | 1013.4 |
| 20260507080356 | 66 | 284 | 0.0 | 1.0 | 0.00 | 0.00 | 0.00 | 34 | 1013.7 |
| 20260507075851 | 67 | 314 | 1.0 | 2.0 | 0.00 | 0.00 | 0.00 | 33 | 1013.7 |
| 20260507075347 | 67 | 308 | 0.0 | 1.0 | 0.00 | 0.00 | 0.00 | 34 | 1013.6 |
| 20260507074844 | 67 | 312 | 1.0 | 1.0 | 0.00 | 0.00 | 0.00 | 33 | 1013.7 |
| 20260507074341 | 67 | 272 | 0.0 | 1.0 | 0.00 | 0.00 | 0.00 | 33 | 1013.8 |
| 20260507073838 | 68 | 292 | 0.0 | 1.0 | 0.00 | 0.00 | 0.00 | 33 | 1013.6 |
| 20260507073335 | 68 | 298 | 0.0 | 1.0 | 0.00 | 0.00 | 0.00 | 32 | 1013.7 |
| 20260507072832 | 68 | 324 | 0.0 | 1.0 | 0.00 | 0.00 | 0.00 | 31 | 1013.7 |
| 20260507072330 | 68 | 275 | 0.0 | 1.0 | 0.00 | 0.00 | 0.00 | 31 | 1013.8 |
| 20260507071827 | 68 | 245 | 0.0 | 1.0 | 0.00 | 0.00 | 0.00 | 31 | 1013.7 |
| 20260507071324 | 68 | 287 | 0.0 | 1.0 | 0.00 | 0.00 | 0.00 | 32 | 1013.7 |
| 20260507070820 | 68 | 284 | 0.0 | 1.0 | 0.00 | 0.00 | 0.00 | 33 | 1013.5 |
| 20260507070318 | 68 | 319 | 0.0 | 1.0 | 0.00 | 0.00 | 0.00 | 33 | 1013.6 |
| 20260507065814 | 68 | 300 | 0.0 | 1.0 | 0.00 | 0.00 | 0.00 | 33 | 1013.6 |
| 20260507065311 | 69 | 277 | 0.0 | 1.0 | 0.00 | 0.00 | 0.00 | 33 | 1013.7 |
| 20260507064808 | 69 | 288 | 0.0 | 1.0 | 0.00 | 0.00 | 0.00 | 32 | 1013.4 |
| 20260507064307 | 69 | 274 | 0.0 | 1.0 | 0.00 | 0.00 | 0.00 | 32 | 1013.7 |
| 20260507063804 | 69 | 308 | 0.0 | 1.0 | 0.00 | 0.00 | 0.00 | 32 | 1013.7 |
| 20260507063301 | 69 | 271 | 0.0 | 1.0 | 0.00 | 0.00 | 0.00 | 32 | 1013.6 |
| 20260507062758 | 69 | 284 | 0.0 | 1.0 | 0.00 | 0.00 | 0.00 | 31 | 1013.7 |
| 20260507062255 | 69 | 271 | 0.0 | 1.0 | 0.00 | 0.00 | 0.00 | 32 | 1013.5 |
| 20260507061753 | 70 | 305 | 0.0 | 1.0 | 0.00 | 0.00 | 0.00 | 31 | 1013.6 |
| 20260507061250 | 70 | 306 | 1.0 | 1.0 | 0.00 | 0.00 | 0.00 | 31 | 1013.7 |
| 20260507060748 | 70 | 257 | 0.0 | 1.0 | 0.00 | 0.00 | 0.00 | 31 | 1013.5 |
| 20260507060244 | 70 | 257 | 0.0 | 1.0 | 0.00 | 0.00 | 0.00 | 36 | 1013.8 |
| 20260507055741 | 69 | 308 | 0.0 | 1.0 | 0.00 | 0.00 | 0.00 | 33 | 1013.7 |
| 20260507055236 | 70 | 323 | 1.0 | 1.0 | 0.00 | 0.00 | 0.00 | 33 | 1013.5 |
| 20260507054733 | 70 | 311 | 1.0 | 1.0 | 0.00 | 0.00 | 0.00 | 33 | 1013.9 |
| 20260507054230 | 70 | 284 | 0.0 | 1.0 | 0.00 | 0.00 | 0.00 | 33 | 1013.5 |
| 20260507053727 | 70 | 307 | 0.0 | 0.0 | 0.00 | 0.00 | 0.00 | 32 | 1013.6 |
| 20260507053225 | 71 | 321 | 0.0 | 0.0 | 0.00 | 0.00 | 0.00 | 33 | 1013.5 |
| 20260507052724 | 71 | 284 | 0.0 | 1.0 | 0.00 | 0.00 | 0.00 | 32 | 1013.5 |
| 20260507052219 | 71 | 284 | 0.0 | 1.0 | 0.00 | 0.00 | 0.00 | 31 | 1013.6 |
| 20260507051718 | 71 | 284 | 0.0 | 1.0 | 0.00 | 0.00 | 0.00 | 31 | 1013.6 |
| 20260507051214 | 71 | 284 | 0.0 | 0.0 | 0.00 | 0.00 | 0.00 | 31 | 1013.5 |
| 20260507050711 | 71 | 330 | 0.0 | 0.0 | 0.00 | 0.00 | 0.00 | 30 | 1013.4 |
| 20260507050208 | 72 | 304 | 0.0 | 0.0 | 0.00 | 0.00 | 0.00 | 31 | 1013.3 |
| 20260507045705 | 72 | 319 | 0.0 | 0.0 | 0.00 | 0.00 | 0.00 | 30 | 1013.3 |
| 20260507045201 | 72 | 284 | 0.0 | 0.0 | 0.00 | 0.00 | 0.00 | 30 | 1013.3 |
| 20260507044658 | 72 | 284 | 0.0 | 0.0 | 0.00 | 0.00 | 0.00 | 30 | 1013.3 |
| 20260507044154 | 72 | 257 | 0.0 | 0.0 | 0.00 | 0.00 | 0.00 | 30 | 1013.3 |
| 20260507043651 | 73 | 288 | 0.0 | 1.0 | 0.00 | 0.00 | 0.00 | 29 | 1013.5 |
| 20260507043148 | 73 | 334 | 0.0 | 0.0 | 0.00 | 0.00 | 0.00 | 29 | 1013.3 |
| 20260507042644 | 73 | 297 | 0.0 | 0.0 | 0.00 | 0.00 | 0.00 | 29 | 1013.3 |
| 20260507042139 | 73 | 297 | 0.0 | 0.0 | 0.00 | 0.00 | 0.00 | 28 | 1013.1 |
| 20260507041637 | 74 | 298 | 0.0 | 0.0 | 0.00 | 0.00 | 0.00 | 29 | 1013.3 |
| 20260507041133 | 74 | 298 | 0.0 | 0.0 | 0.00 | 0.00 | 0.00 | 28 | 1013.0 |
| 20260507040630 | 74 | 325 | 0.0 | 0.0 | 0.00 | 0.00 | 0.00 | 28 | 1013.2 |
| 20260507040127 | 75 | 349 | 0.0 | 0.0 | 0.00 | 0.00 | 0.00 | 29 | 1012.8 |
| 20260507035622 | 75 | 104 | 0.0 | 0.0 | 0.00 | 0.00 | 0.00 | 27 | 1012.9 |
| 20260507035118 | 76 | 104 | 0.0 | 0.0 | 0.00 | 0.00 | 0.00 | 28 | 1012.9 |
| 20260507034615 | 76 | 65 | 0.0 | 0.0 | 0.00 | 0.00 | 0.00 | 27 | 1012.7 |
| 20260507034113 | 76 | 122 | 0.0 | 1.0 | 0.00 | 0.00 | 0.00 | 27 | 1012.7 |
| 20260507033611 | 75 | 349 | 0.0 | 0.0 | 0.00 | 0.00 | 0.00 | 28 | 1012.6 |
| 20260507033108 | 76 | 349 | 0.0 | 0.0 | 0.00 | 0.00 | 0.00 | 27 | 1012.7 |
| 20260507032606 | 76 | 349 | 0.0 | 0.0 | 0.00 | 0.00 | 0.00 | 27 | 1012.6 |
| 20260507032102 | 77 | 349 | 0.0 | 0.0 | 0.00 | 0.00 | 0.00 | 28 | 1012.5 |
| 20260507031558 | 77 | 349 | 0.0 | 0.0 | 0.00 | 0.00 | 0.00 | 26 | 1012.4 |
| 20260507031055 | 77 | 47 | 0.0 | 0.0 | 0.00 | 0.00 | 0.00 | 26 | 1012.2 |
| 20260507030552 | 78 | 59 | 0.0 | 0.0 | 0.00 | 0.00 | 0.00 | 27 | 1012.4 |
| 20260507030050 | 78 | 65 | 0.0 | 0.0 | 0.00 | 0.00 | 0.00 | 26 | 1012.2 |
| 20260507025547 | 78 | 157 | 0.0 | 0.0 | 0.00 | 0.00 | 0.00 | 25 | 1012.0 |
| 20260507025044 | 79 | 132 | 0.0 | 0.0 | 0.00 | 0.00 | 0.00 | 25 | 1012.0 |
| 20260507024541 | 80 | 132 | 0.0 | 0.0 | 0.00 | 0.00 | 0.00 | 24 | 1012.0 |
| 20260507024038 | 80 | 115 | 1.0 | 2.0 | 0.00 | 0.00 | 0.00 | 24 | 1012.0 |
| 20260507023533 | 80 | 104 | 0.0 | 1.0 | 0.00 | 0.00 | 0.00 | 25 | 1011.9 |
| 20260507023032 | 81 | 99 | 1.0 | 2.0 | 0.00 | 0.00 | 0.00 | 23 | 1012.0 |
| 20260507022528 | 81 | 104 | 0.0 | 2.0 | 0.00 | 0.00 | 0.00 | 23 | 1012.0 |
| 20260507022023 | 81 | 104 | 0.0 | 2.0 | 0.00 | 0.00 | 0.00 | 23 | 1011.8 |
| 20260507021520 | 82 | 49 | 0.0 | 3.0 | 0.00 | 0.00 | 0.00 | 23 | 1011.8 |
| 20260507021016 | 82 | 111 | 0.0 | 2.0 | 0.00 | 0.00 | 0.00 | 22 | 1011.8 |
| 20260507020514 | 82 | 94 | 3.0 | 3.0 | 0.00 | 0.00 | 0.00 | 22 | 1011.5 |
| 20260507020010 | 83 | 106 | 0.0 | 2.0 | 0.00 | 0.00 | 0.00 | 22 | 1011.7 |
| 20260507015509 | 84 | 15 | 0.0 | 3.0 | 0.00 | 0.00 | 0.00 | 22 | 1011.6 |
| 20260507015006 | 85 | 107 | 0.0 | 3.0 | 0.00 | 0.00 | 0.00 | 21 | 1011.7 |
| 20260507014502 | 85 | 338 | 0.0 | 3.0 | 0.00 | 0.00 | 0.00 | 21 | 1011.7 |
| 20260507013958 | 84 | 20 | 0.0 | 3.0 | 0.00 | 0.00 | 0.00 | 21 | 1011.8 |
| 20260507013455 | 84 | 100 | 4.0 | 4.0 | 0.00 | 0.00 | 0.00 | 22 | 1011.7 |
| 20260507012952 | 84 | 81 | 2.0 | 3.0 | 0.00 | 0.00 | 0.00 | 21 | 1011.6 |
| 20260507012449 | 84 | 108 | 2.0 | 3.0 | 0.00 | 0.00 | 0.00 | 21 | 1011.7 |
| 20260507011946 | 86 | 114 | 2.0 | 3.0 | 0.00 | 0.00 | 0.00 | 20 | 1011.7 |
| 20260507011443 | 86 | 84 | 3.0 | 4.0 | 0.00 | 0.00 | 0.00 | 21 | 1011.6 |
| 20260507010938 | 89 | 97 | 1.0 | 5.0 | 0.00 | 0.00 | 0.00 | 20 | 1011.6 |
| 20260507010433 | 90 | 90 | 2.0 | 3.0 | 0.00 | 0.00 | 0.00 | 19 | 1011.7 |
| 20260507005930 | 89 | 91 | 2.0 | 3.0 | 0.00 | 0.00 | 0.00 | 20 | 1011.7 |
| 20260507005427 | 89 | 81 | 0.0 | 2.0 | 0.00 | 0.00 | 0.00 | 20 | 1011.7 |
| 20260507004923 | 89 | 98 | 3.0 | 4.0 | 0.00 | 0.00 | 0.00 | 19 | 1011.9 |
| 20260507004420 | 89 | 123 | 2.0 | 4.0 | 0.00 | 0.00 | 0.00 | 20 | 1011.5 |
| 20260507003918 | 88 | 64 | 1.0 | 3.0 | 0.00 | 0.00 | 0.00 | 20 | 1011.6 |
| 20260507003413 | 88 | 85 | 1.0 | 5.0 | 0.00 | 0.00 | 0.00 | 20 | 1011.7 |
| 20260507002908 | 88 | 101 | 0.0 | 4.0 | 0.00 | 0.00 | 0.00 | 20 | 1011.8 |
| 20260507002404 | 87 | 104 | 3.0 | 5.0 | 0.00 | 0.00 | 0.00 | 20 | 1011.9 |
| 20260507001902 | 87 | 102 | 1.0 | 5.0 | 0.00 | 0.00 | 0.00 | 20 | 1011.7 |
| 20260507001358 | 91 | 128 | 0.0 | 3.0 | 0.00 | 0.00 | 0.00 | 19 | 1011.7 |
| 20260507000856 | 90 | 113 | 1.0 | 3.0 | 0.00 | 0.00 | 0.00 | 19 | 1011.8 |
| 20260507000350 | 90 | 88 | 2.0 | 4.0 | 0.00 | 0.00 | 0.00 | 20 | 1011.8 |
| 20260506235847 | 89 | 56 | 2.0 | 5.0 | 0.00 | 0.00 | 0.00 | 20 | 1011.7 |
| 20260506235344 | 90 | 110 | 1.0 | 3.0 | 0.00 | 0.00 | 0.00 | 19 | 1011.7 |
| 20260506234840 | 88 | 98 | 0.0 | 3.0 | 0.00 | 0.00 | 0.00 | 20 | 1011.7 |
| 20260506234338 | 90 | 74 | 2.0 | 4.0 | 0.00 | 0.00 | 0.00 | 19 | 1011.8 |
| 20260506233836 | 91 | 67 | 1.0 | 3.0 | 0.00 | 0.00 | 0.00 | 20 | 1011.8 |
| 20260506233331 | 90 | 50 | 0.0 | 3.0 | 0.00 | 0.00 | 0.00 | 19 | 1011.8 |
| 20260506232829 | 89 | 67 | 0.0 | 3.0 | 0.00 | 0.00 | 0.00 | 19 | 1012.1 |
| 20260506232324 | 88 | 98 | 2.0 | 6.0 | 0.00 | 0.00 | 0.00 | 20 | 1012.0 |
| 20260506231821 | 87 | 87 | 2.0 | 5.0 | 0.00 | 0.00 | 0.00 | 20 | 1012.1 |
| 20260506231319 | 87 | 138 | 2.0 | 5.0 | 0.00 | 0.00 | 0.00 | 20 | 1012.0 |
| 20260506230816 | 89 | 181 | 3.0 | 5.0 | 0.00 | 0.00 | 0.00 | 20 | 1012.3 |
| 20260506230312 | 89 | 93 | 3.0 | 3.0 | 0.00 | 0.00 | 0.00 | 19 | 1012.3 |
| 20260506225808 | 87 | 73 | 2.0 | 3.0 | 0.00 | 0.00 | 0.00 | 19 | 1012.4 |
| 20260506225306 | 87 | 118 | 0.0 | 3.0 | 0.00 | 0.00 | 0.00 | 20 | 1012.1 |
| 20260506224803 | 87 | 81 | 2.0 | 4.0 | 0.00 | 0.00 | 0.00 | 20 | 1012.5 |
| 20260506224300 | 86 | 112 | 2.0 | 3.0 | 0.00 | 0.00 | 0.00 | 21 | 1012.5 |
| 20260506223756 | 86 | 157 | 0.0 | 5.0 | 0.00 | 0.00 | 0.00 | 20 | 1012.4 |
| 20260506223251 | 88 | 74 | 1.0 | 2.0 | 0.00 | 0.00 | 0.00 | 19 | 1012.6 |
| 20260506222748 | 87 | 103 | 1.0 | 5.0 | 0.00 | 0.00 | 0.00 | 20 | 1012.4 |
| 20260506222244 | 88 | 108 | 2.0 | 2.0 | 0.00 | 0.00 | 0.00 | 20 | 1012.7 |
| 20260506221737 | 87 | 81 | 0.0 | 2.0 | 0.00 | 0.00 | 0.00 | 21 | 1012.6 |
| 20260506221234 | 86 | 129 | 1.0 | 4.0 | 0.00 | 0.00 | 0.00 | 20 | 1012.7 |
| 20260506220731 | 86 | 121 | 3.0 | 5.0 | 0.00 | 0.00 | 0.00 | 20 | 1012.9 |
| 20260506220226 | 87 | 93 | 3.0 | 4.0 | 0.00 | 0.00 | 0.00 | 20 | 1012.9 |
| 20260506215723 | 87 | 114 | 3.0 | 3.0 | 0.00 | 0.00 | 0.00 | 20 | 1012.8 |
| 20260506215218 | 85 | 2 | 0.0 | 3.0 | 0.00 | 0.00 | 0.00 | 22 | 1012.9 |
| 20260506214715 | 86 | 307 | 1.0 | 2.0 | 0.00 | 0.00 | 0.00 | 22 | 1013.1 |
| 20260506214213 | 85 | 95 | 0.0 | 3.0 | 0.00 | 0.00 | 0.00 | 21 | 1013.2 |
| 20260506213711 | 84 | 90 | 2.0 | 5.0 | 0.00 | 0.00 | 0.00 | 21 | 1013.4 |
| 20260506213208 | 84 | 108 | 2.0 | 6.0 | 0.00 | 0.00 | 0.00 | 22 | 1013.4 |
| 20260506212705 | 85 | 117 | 3.0 | 3.0 | 0.00 | 0.00 | 0.00 | 21 | 1013.4 |
| 20260506212200 | 84 | 89 | 2.0 | 8.0 | 0.00 | 0.00 | 0.00 | 22 | 1013.4 |
| 20260506211656 | 83 | 36 | 1.0 | 6.0 | 0.00 | 0.00 | 0.00 | 22 | 1013.7 |
| 20260506211152 | 83 | 104 | 0.0 | 3.0 | 0.00 | 0.00 | 0.00 | 21 | 1013.7 |
| 20260506210649 | 82 | 107 | 0.0 | 4.0 | 0.00 | 0.00 | 0.00 | 24 | 1013.8 |
| 20260506210146 | 83 | 125 | 0.0 | 4.0 | 0.00 | 0.00 | 0.00 | 21 | 1013.9 |
| 20260506205644 | 83 | 65 | 2.0 | 3.0 | 0.00 | 0.00 | 0.00 | 21 | 1014.0 |
| 20260506205138 | 83 | 113 | 1.0 | 5.0 | 0.00 | 0.00 | 0.00 | 22 | 1014.0 |
| 20260506204636 | 82 | 107 | 1.0 | 5.0 | 0.00 | 0.00 | 0.00 | 22 | 1014.1 |
| 20260506204133 | 83 | 79 | 2.0 | 5.0 | 0.00 | 0.00 | 0.00 | 22 | 1014.3 |
| 20260506203631 | 83 | 99 | 3.0 | 4.0 | 0.00 | 0.00 | 0.00 | 22 | 1014.2 |
| 20260506203127 | 82 | 129 | 0.0 | 3.0 | 0.00 | 0.00 | 0.00 | 23 | 1014.1 |
| 20260506202626 | 81 | 87 | 2.0 | 4.0 | 0.00 | 0.00 | 0.00 | 22 | 1014.3 |
| 20260506202121 | 81 | 99 | 2.0 | 8.0 | 0.00 | 0.00 | 0.00 | 22 | 1014.3 |
| 20260506201619 | 81 | 103 | 3.0 | 4.0 | 0.00 | 0.00 | 0.00 | 22 | 1014.3 |
| 20260506201115 | 81 | 114 | 2.0 | 4.0 | 0.00 | 0.00 | 0.00 | 22 | 1014.4 |
| 20260506200612 | 80 | 230 | 1.0 | 2.0 | 0.00 | 0.00 | 0.00 | 24 | 1014.6 |
| 20260506200109 | 82 | 90 | 2.0 | 3.0 | 0.00 | 0.00 | 0.00 | 23 | 1014.6 |
| 20260506195605 | 82 | 98 | 2.0 | 2.0 | 0.00 | 0.00 | 0.00 | 24 | 1014.4 |
| 20260506195102 | 81 | 171 | 0.0 | 2.0 | 0.00 | 0.00 | 0.00 | 25 | 1014.7 |
| 20260506194559 | 80 | 15 | 0.0 | 4.0 | 0.00 | 0.00 | 0.00 | 24 | 1014.8 |
| 20260506194055 | 79 | 72 | 1.0 | 2.0 | 0.00 | 0.00 | 0.00 | 26 | 1014.6 |
| 20260506193553 | 78 | 278 | 3.0 | 4.0 | 0.00 | 0.00 | 0.00 | 25 | 1014.8 |
| 20260506193050 | 79 | 95 | 3.0 | 6.0 | 0.00 | 0.00 | 0.00 | 25 | 1015.0 |
| 20260506192547 | 79 | 85 | 2.0 | 4.0 | 0.00 | 0.00 | 0.00 | 25 | 1014.9 |
| 20260506192043 | 79 | 67 | 2.0 | 5.0 | 0.00 | 0.00 | 0.00 | 24 | 1014.9 |
| 20260506191539 | 79 | 135 | 1.0 | 5.0 | 0.00 | 0.00 | 0.00 | 25 | 1015.2 |
| 20260506191035 | 79 | 82 | 3.0 | 6.0 | 0.00 | 0.00 | 0.00 | 26 | 1015.1 |
| 20260506190533 | 79 | 125 | 3.0 | 5.0 | 0.00 | 0.00 | 0.00 | 25 | 1015.1 |
| 20260506190030 | 79 | 80 | 2.0 | 3.0 | 0.00 | 0.00 | 0.00 | 25 | 1015.2 |
| 20260506185527 | 79 | 58 | 5.0 | 5.0 | 0.00 | 0.00 | 0.00 | 26 | 1015.2 |
| 20260506185023 | 78 | 88 | 0.0 | 4.0 | 0.00 | 0.00 | 0.00 | 26 | 1015.3 |
| 20260506184521 | 78 | 106 | 2.0 | 5.0 | 0.00 | 0.00 | 0.00 | 26 | 1015.3 |
| 20260506184018 | 78 | 211 | 2.0 | 3.0 | 0.00 | 0.00 | 0.00 | 26 | 1015.5 |
| 20260506183514 | 79 | 144 | 2.0 | 3.0 | 0.00 | 0.00 | 0.00 | 26 | 1015.6 |
| 20260506183011 | 79 | 62 | 1.0 | 3.0 | 0.00 | 0.00 | 0.00 | 25 | 1015.5 |
| 20260506182508 | 78 | 112 | 4.0 | 5.0 | 0.00 | 0.00 | 0.00 | 25 | 1015.7 |
| 20260506182005 | 78 | 11 | 1.0 | 3.0 | 0.00 | 0.00 | 0.00 | 29 | 1016.0 |
| 20260506181503 | 77 | 84 | 2.0 | 3.0 | 0.00 | 0.00 | 0.00 | 28 | 1015.9 |
| 20260506181000 | 76 | 67 | 0.0 | 3.0 | 0.00 | 0.00 | 0.00 | 27 | 1016.1 |
| 20260506180456 | 77 | 100 | 3.0 | 3.0 | 0.00 | 0.00 | 0.00 | 27 | 1015.8 |
| 20260506175953 | 77 | 68 | 1.0 | 3.0 | 0.00 | 0.00 | 0.00 | 28 | 1015.8 |
| 20260506175449 | 77 | 150 | 2.0 | 4.0 | 0.00 | 0.00 | 0.00 | 28 | 1016.1 |
| 20260506174946 | 77 | 65 | 4.0 | 4.0 | 0.00 | 0.00 | 0.00 | 29 | 1015.9 |
| 20260506174444 | 77 | 122 | 3.0 | 4.0 | 0.00 | 0.00 | 0.00 | 28 | 1015.8 |
| 20260506173940 | 77 | 324 | 0.0 | 3.0 | 0.00 | 0.00 | 0.00 | 29 | 1015.6 |
| 20260506173438 | 76 | 260 | 1.0 | 2.0 | 0.00 | 0.00 | 0.00 | 31 | 1016.0 |
| 20260506172934 | 76 | 83 | 0.0 | 5.0 | 0.00 | 0.00 | 0.00 | 30 | 1016.1 |
| 20260506172432 | 77 | 161 | 1.0 | 3.0 | 0.00 | 0.00 | 0.00 | 29 | 1015.7 |
| 20260506171928 | 77 | 91 | 2.0 | 3.0 | 0.00 | 0.00 | 0.00 | 30 | 1015.9 |
| 20260506171426 | 77 | 77 | 1.0 | 4.0 | 0.00 | 0.00 | 0.00 | 29 | 1015.7 |
| 20260506170924 | 77 | 101 | 2.0 | 3.0 | 0.00 | 0.00 | 0.00 | 29 | 1016.0 |
| 20260506170419 | 77 | 118 | 0.0 | 2.0 | 0.00 | 0.00 | 0.00 | 31 | 1015.7 |
| 20260506165913 | 75 | 119 | 0.0 | 1.0 | 0.00 | 0.00 | 0.00 | 30 | 1015.9 |
| 20260506165411 | 75 | 91 | 0.0 | 4.0 | 0.00 | 0.00 | 0.00 | 30 | 1016.1 |
| 20260506164907 | 75 | 78 | 0.0 | 3.0 | 0.00 | 0.00 | 0.00 | 30 | 1015.9 |
| 20260506164403 | 74 | 51 | 0.0 | 4.0 | 0.00 | 0.00 | 0.00 | 32 | 1015.8 |
| 20260506163901 | 76 | 84 | 0.0 | 4.0 | 0.00 | 0.00 | 0.00 | 31 | 1015.9 |
| 20260506163356 | 77 | 274 | 1.0 | 3.0 | 0.00 | 0.00 | 0.00 | 30 | 1015.8 |
| 20260506162851 | 76 | 211 | 0.0 | 1.0 | 0.00 | 0.00 | 0.00 | 32 | 1016.0 |
| 20260506162349 | 76 | 89 | 1.0 | 2.0 | 0.00 | 0.00 | 0.00 | 31 | 1015.8 |
| 20260506161841 | 75 | 226 | 0.0 | 1.0 | 0.00 | 0.00 | 0.00 | 32 | 1015.8 |
| 20260506161338 | 73 | 142 | 1.0 | 2.0 | 0.00 | 0.00 | 0.00 | 34 | 1015.7 |
| 20260506160835 | 73 | 87 | 0.0 | 2.0 | 0.00 | 0.00 | 0.00 | 34 | 1015.7 |
| 20260506160332 | 72 | 271 | 0.0 | 4.0 | 0.00 | 0.00 | 0.00 | 34 | 1015.9 |
| 20260506155830 | 72 | 37 | 1.0 | 1.0 | 0.00 | 0.00 | 0.00 | 33 | 1015.9 |
| 20260506155326 | 72 | 91 | 0.0 | 3.0 | 0.00 | 0.00 | 0.00 | 34 | 1015.7 |
| 20260506153439 | 72 | 104 | 0.0 | 3.0 | 0.00 | 0.00 | 0.00 | 33 | 1016.0 |
| 20260506152937 | 72 | 91 | 0.0 | 2.0 | 0.00 | 0.00 | 0.00 | 34 | 1015.9 |
| 20260506152433 | 72 | 10 | 0.0 | 2.0 | 0.00 | 0.00 | 0.00 | 33 | 1015.9 |
| 20260506151932 | 73 | 337 | 0.0 | 0.0 | 0.00 | 0.00 | 0.00 | 33 | 1016.0 |
| 20260506151428 | 71 | 284 | 0.0 | 2.0 | 0.00 | 0.00 | 0.00 | 34 | 1015.9 |
| 20260506150926 | 70 | 217 | 0.0 | 1.0 | 0.00 | 0.00 | 0.00 | 38 | 1016.0 |
| 20260506150422 | 69 | 156 | 0.0 | 1.0 | 0.00 | 0.00 | 0.00 | 37 | 1015.8 |
| 20260506145919 | 69 | 337 | 0.0 | 1.0 | 0.00 | 0.00 | 0.00 | 36 | 1015.8 |